Regional Weather Roundup
Issued by NWS

Home | Current Version | Previous Version | Graphics & Text | Print | Product List | Glossary On
Versions: 1 2 3 4 5 6 7 8 9 10 11 12 13 14 15 16 17 18 19 20 21 22 23 24 25 26 27 28 29 30 31 32 33 34 35 36 37 38 39 40 41 42 43 44 45 46 47 48 49 50
000
ASUS45 KPSR 150110
RWRAZ

ARIZONA REGIONAL HOURLY WEATHER ROUNDUP
NATIONAL WEATHER SERVICE PHOENIX AZ
600 PM MST SUN SEP 14 2014

NOTE: FAIR INDICATES FEW OR NO CLOUDS BELOW 12,000 FEET WITH NO
SIGNIFICANT WEATHER AND/OR OBSTRUCTIONS TO VISIBILITY.

AZZ001>003-036-150200-
NORTHWEST ARIZONA

CITY           SKY/WX    TMP DP  RH WIND       PRES   REMARKS
BULLHEAD CITY  CLEAR    104  39  11 SW5       29.70S
KINGMAN        CLEAR     92  42  17 VRB3      29.93S
$$

AZZ004>008-015-016-018-150200-
NORTH CENTRAL ARIZONA

CITY           SKY/WX    TMP DP  RH WIND       PRES   REMARKS
GRAND CANYON   PTCLDY    70  47  43 CALM      30.18F
PRESCOTT       PTCLDY    81  50  33 SW5       30.06R
FLAGSTAFF      MOCLDY    68  51  54 SW8       30.22S
PAYSON         FAIR      81  52  36 S6        30.09S
PAGE           PTCLDY    91  34  13 CALM      29.98F
$$

AZZ009>014-017-150200-
NORTHEAST ARIZONA

CITY           SKY/WX    TMP DP  RH WIND       PRES   REMARKS
WINSLOW        PTCLDY    83  43  24 SW7       30.03S
SAINT JOHNS    CLOUDY    76  47  35 SW7       30.10R
SHOW LOW       MOCLDY    68  46  45 SE13      30.19S
$$

AZZ023-150200-
GREATER PHOENIX AREA

CITY           SKY/WX    TMP DP  RH WIND       PRES   REMARKS
PHOENIX        PTCLDY    99  56  23 SW5       29.73S
BUCKEYE          N/A     95  57  28 E5        29.75S
GLENDALE       PTCLDY    99  57  25 NW3       29.75S
DEER VALLEY    CLEAR     96  54  24 CALM      29.76S
SCOTTSDALE     CLEAR     97  56  25 SW3       29.78S
MESA-FALCON    PTCLDY    99  55  23 W7        29.75S
MESA-GATEWAY   PTCLDY    97  57  26 S3        29.78R
CHANDLER       PTCLDY    97  61  30 NE5       29.75S
$$

AZZ027-028-150200-
SOUTHWEST MARICOPA COUNTY AND PINAL COUNTY

CITY           SKY/WX    TMP DP  RH WIND       PRES   REMARKS
CASA GRANDE    CLEAR     97  55  24 CALM      29.77S
$$

AZZ503-504-507>509-150200-
SOUTHEAST ARIZONA

CITY           SKY/WX    TMP DP  RH WIND       PRES   REMARKS
TUCSON         CLEAR     94  53  25 E6        29.86S
RYAN FIELD       N/A     93  55  27 NE7       29.84S
NOGALES        CLEAR     85  57  38 SE7       29.94S
SIERRA VISTA   CLEAR     81  55  40 E8        30.03S
DOUGLAS        FAIR      83  54  36 E12       30.00R
SAFFORD        CLEAR     86  53  32 SE10      29.94R
$$

AZZ020-021-025-026-031-150200-
SOUTHWEST ARIZONA

CITY           SKY/WX    TMP DP  RH WIND       PRES   REMARKS
YUMA           CLEAR    106  53  17 CALM      29.65S HX 104
$$

CAZ031-033-041-043-047-048-061-150200-
SOUTHERN CALIFORNIA

CITY           SKY/WX    TMP DP  RH WIND       PRES   REMARKS
DOWNTOWN L.A.  SUNNY     88  59  37 SW3       29.67F
L.A. AIRPORT   MOSUNNY   79  63  57 SW13      29.69S
SAN DIEGO      MOSUNNY   83  67  58 NW7       29.71S
BURBANK        SUNNY    103  47  15 S5        29.70S
ONTARIO        MOSUNNY  101  47  16 W14       29.71R
RIVERSIDE      MOSUNNY   99  53  21 W10G20    29.71R
PALM SPRINGS   PTSUNNY  104  53  18 E10       29.68R HX 102
EL CENTRO NAS  PTCLDY   106  55  18 SE6       29.63S HX 105
IMPERIAL       CLEAR    107  56  18 MISG      29.62S HX 106
BLYTHE         CLEAR    105  54  18 NE8       29.67S HX 103
NEEDLES        CLEAR    106  38   9 E7        29.71F HX 100
$$

NVZ020-UTZ003-150200-
SOUTHERN NEVADA-UTAH

CITY           SKY/WX    TMP DP  RH WIND       PRES   REMARKS
LAS VEGAS      FAIR      99  40  13 SE7       29.77S
SALT LAKE CITY PTCLDY    84  36  18 N7        29.98F
$$

NMZ009-TXZ055-150200-
NEW MEXICO-WEST TEXAS

CITY           SKY/WX    TMP DP  RH WIND       PRES   REMARKS
ALBUQUERQUE    PTCLDY    77  51  40 S14G23    30.15R
EL PASO        MOCLDY    76  57  51 E17       30.08S
$$


........................KEY........................
SKY/WX - SKY CONDITION/WEATHER
TMP    - TEMPERATURE IN FAHRENHEIT
DP     - DEW POINT IN FAHRENHEIT
RH     - RELATIVE HUMIDITY IN PERCENT
WIND   - DIRECTION AND SPEED IN MILES PER HOUR (MPH)
VRB    - VARIABLE WIND DIRECTION
PRES   - MEAN SEA LEVEL PRESSURE IN INCHES OF MERCURY
         F - FALLING PRESSURE   R - RISING PRESSURE
         S - STEADY PRESSURE
VSB    - VISIBILITY IN MILES
HX     - HEAT INDEX IN FAHRENHEIT
WCI    - WIND CHILL INDEX IN FAHRENHEIT
TC     - TEMPERATURE IN CELSIUS WHICH IS ALSO KNOWN AS
         TEMPERATURE IN CENTIGRADE
AFB    - AIR FORCE BASE
         LUKE AFB IS LUKE AIR FORCE BASE
         DAVIS-MONTHAN IS DAVIS-MONTHAN AIR FORCE BASE
NAS    - NAVAL AIR STATION
         EL CENTRO NAS IS EL CENTRO NAVAL AIR STATION
N/A    - NOT AVAILABLE


USA.gov is the U.S. government's official web portal to all federal, state and local government web resources and services.